アトラス彗星

C/2020 F2 ( ATLAS )

English version
Home page
Updated on June 13, 2020

---------------------------------------------------------------------

・ プロフィール

発見日 2020年3月21日、22日
発見光度 19.3等、19.3等
発見者 Asteroid Terrestrial-Impact Last Alert System (ATLAS) search program, Pan-STARRS 1 telescope (Haleakala)

・ 写真集

・ 軌道要素

Epoch 2022 June 30.0 TT = JDT 2459760.5
T 2022 July 15.66240 TT                                 Rudenko
q   8.8172912            (2000.0)            P               Q
z  -0.0005820      Peri.   48.35256     -0.89903566     -0.34781286
 +/-0.0000022      Node   250.27249     -0.43593665     +0.76806371
e   1.0051313      Incl.  163.58483     +0.04115976     +0.53768426
From 224 observations 2019 May 27-2020 June 1, mean residual 0".4.

・ 星図

・ 光度変化

        m1 = 2.5 + 5 logΔ + 10.0 log r

---------------------------------------------------------------------

軌道要素はM.P.E.C. 2020-L06に掲載されたものです。
星図はステラナビゲータ Ver.10 (アストロアーツ) で作成したものです。
光度グラフはComet for Windowsで作成したものです。

---------------------------------------------------------------------

Copyright(C) Seiichi Yoshida (comet@aerith.net). All rights reserved.